Location: Unspecified
(40.7945°N, 0.0000°E)
Time: 01:53:29
(UTC+00:00)

Altair - Pass Details

Date: 21 January 2021
Orbit: 1501 x 1682 km, 47.2° (Epoch: 01 March)

Event Time Altitude Azimuth Distance (km) Brightness Sun altitude
Rises 14:35:03 0° 288° (WNW) 4,902 10.4 20.9°
Reaches altitude 10° 14:40:17 10° 267° (W) 3,880 10.3 20.3°
Maximum altitude 14:44:50 14° 239° (WSW) 3,513 11.1 19.7°
Drops below altitude 10° 14:49:19 10° 210° (SSW) 3,806 11.7 19.2°
Sets 14:54:25 0° 188° (S) 4,746 11.0 18.6°
